Volver al catálogo

DELTA 1 DEB

LostUNKNOWN
NORAD 28668·DEBRIS·🇺🇸 United States

Lanzado Jul 4, 1968 desde Vandenberg Space Force Base

Loading…

Próximos Pases (próximas 24 horas)

TLE

ObsoletoSource: Space-Track

Época: Aug 17, 2017, 07:30 UTC

1 28668U 68055S   17229.31268363 -.00001339  00000-0 -81989-3 0  9993
2 28668 120.7489 302.2806 1482935  75.8566 300.2175 11.75295832 64329

Sigue DELTA 1 DEB en tiempo real con AllMySat

Download on the App Store